Location: Gorze? G�rny
(49.8500°N, 19.5000°E)
Time: 03:30:17
(UTC+00:00)

USA 307 - Pass Details

Date: 13 May 2021
Orbit: 566 x 577 km, 54.0° (Epoch: 10 May)

Event Time Altitude Azimuth Distance (km) Brightness Sun altitude
Rises 19:32:48 0° 295° (WNW) 2,777 7.9 -10.2°
Reaches altitude 10° 19:35:05 10° 292° (WNW) 1,878 6.7 -10.5°
Maximum altitude 19:39:17 59° 213° (SSW) 665 3.1 -11.0°
Enters shadow 19:42:29 17° 137° (SE) 1,495 4.4 -11.3°
